{"data":{"norad_id":46460,"intl_designator":"2020-065G","name":"JILIN-1 GAOFEN 3H","alt_names":[],"object_type":"PAYLOAD","status":"ACTIVE","operator":null,"country":"PRC","launch_date":"2020-09-15","launch_site_code":"SEAL","launch_vehicle":null,"mission":null,"orbit_class":"UNKNOWN","rcs_meters":null,"size_class":null,"mass_kg":null,"dimensions":null,"purposes":[],"wikipedia_slug":null,"has_3d_model":false,"image_url":null,"decayed_at":null,"tle_current":{"epoch":"2026-09-20T04:21:13.017024Z","epoch_age_seconds":101277,"freshness":"FRESH","line1":"1 46460U 20065G   26263.18140066  .00213429  18549-4  71259-3 0  9997","line2":"2 46460  97.2000 320.1998 0001896 254.2266 105.8799 15.90205150334853","mean_motion":15.9020515,"eccentricity":0.0001896,"inclination_deg":97.2,"raan_deg":320.1998,"arg_perigee_deg":254.2266,"mean_anomaly_deg":105.8799,"bstar":0.00071259,"rev_number":33485,"period_min":90.554353946093,"perigee_km":300.44179475205,"apogee_km":302.97479208731,"semimajor_km":6679.8452934197,"source":"CELESTRAK","updated_at":"2026-09-20T09:00:14.758248Z"}}}